FW2739 Weather Reports


time (UTC)temp
F
wind
direction
speed
knots
gust
knots
rain 1hr
in
rain 24hr
in
rain mn
in
humidity
%
barometer
mb
20200124031518 35 348 0.0 1.7 0.00 0.12 0.12 48 1023.9
20200124030029 35 348 0.0 0.0 0.00 0.12 0.12 50 1024.0
20200124024638 34 348 0.0 0.9 0.00 0.12 0.12 51 1023.7
20200124023031 34 348 0.0 0.0 0.00 0.12 0.12 51 1023.9
20200124021547 34 348 0.0 0.9 0.00 0.12 0.12 51 1024.0
20200124020044 34 348 0.0 1.7 0.00 0.12 0.12 51 1024.3
20200124014519 34 348 0.0 0.0 0.00 0.12 0.12 52 1024.9
20200124013033 34 348 0.0 0.9 0.00 0.12 0.12 53 1024.9
20200124011534 34 348 0.0 0.0 0.00 0.12 0.12 51 1025.0
20200124010038 34 348 0.0 0.0 0.00 0.12 0.12 51 1025.1
20200124004508 34 348 0.0 0.9 0.00 0.12 0.12 51 1024.9
20200124003021 34 348 0.0 0.9 0.00 0.12 0.12 49 1025.1
20200124001553 34 348 0.0 0.0 0.00 0.12 0.12 50 1025.2
20200124000034 34 348 0.0 0.0 0.00 0.12 0.12 51 1025.1
20200123234506 34 348 0.0 0.9 0.00 0.12 0.12 51 1024.9
20200123233008 34 348 0.0 1.7 0.00 0.12 0.12 51 1024.9
20200123231514 35 348 0.0 0.0 0.01 0.12 0.12 48 1025.0
20200123230019 36 348 0.0 0.0 0.01 0.12 0.12 46 1025.1
20200123224505 36 348 0.0 0.0 0.01 0.12 0.12 46 1025.2
20200123223003 37 348 0.0 0.0 0.01 0.12 0.12 44 1025.0
20200123221502 38 348 0.0 0.9 0.01 0.11 0.11 43 1024.9
20200123220353 38 348 0.0 0.0 0.01 0.11 0.11 42 1024.8
20200123214705 39 348 0.0 0.0 0.01 0.12 0.11 41 1024.5
20200123213223 40 348 0.0 0.0 0.02 0.12 0.11 39 1024.5
20200123211711 40 348 0.0 0.9 0.01 0.11 0.10 39 1024.3
20200123210245 40 348 0.0 0.0 0.02 0.11 0.10 39 1024.6
20200123204753 41 348 0.0 0.9 0.02 0.12 0.10 38 1024.5
20200123203226 41 348 0.0 0.9 0.02 0.11 0.09 37 1024.5
20200123201622 41 347 0.0 0.9 0.03 0.11 0.09 36 1024.7
20200123200142 41 347 0.0 0.9 0.02 0.10 0.08 37 1024.8
20200123194732 41 346 0.0 0.9 0.03 0.11 0.08 34 1024.7
20200123193210 41 346 0.0 0.0 0.02 0.10 0.07 34 1024.7
20200123191717 41 346 0.0 1.7 0.02 0.09 0.06 40 1024.8
20200123190123 40 102 0.0 2.6 0.02 0.09 0.06 39 1025.0
20200123184607 40 223 0.0 1.7 0.02 0.10 0.05 35 1025.1
20200123183207 39 223 0.0 0.9 0.03 0.10 0.05 38 1024.9
20200123181608 39 223 0.0 0.9 0.02 0.09 0.04 37 1025.1
20200123180133 39 223 0.0 0.9 0.03 0.09 0.04 37 1025.2
20200123174728 40 269 0.0 1.7 0.03 0.09 0.03 40 1025.4
20200123173145 40 269 0.0 0.9 0.02 0.08 0.02 38 1025.4
20200123171654 39 171 0.0 0.9 0.02 0.08 0.02 37 1025.5
20200123170127 38 171 0.0 0.9 0.01 0.07 0.01 38 1025.9
20200123164702 37 171 0.0 0.0 0.00 0.06 0.00 38 1026.1
20200123163157 37 171 0.0 0.9 0.00 0.06 0.00 41 1026.3
20200123161540 35 171 0.0 1.7 0.00 0.06 0.00 41 1026.8
20200123160026 35 171 0.0 0.0 0.00 0.06 0.00 41 1026.7
20200123154518 33 171 0.0 0.0 0.00 0.06 0.00 46 1026.7
20200123153010 32 171 0.0 0.9 0.00 0.06 0.00 46 1026.9
20200123151515 30 171 0.0 0.9 0.00 0.06 0.00 48 1027.0
20200123144648 27 171 0.0 1.7 0.00 0.06 0.00 53 1026.8
20200123143153 26 171 0.0 0.0 0.00 0.06 0.00 56 1027.0
20200123141639 25 171 0.0 0.0 0.00 0.06 0.00 57 1027.0
20200123140151 24 171 0.0 0.0 0.00 0.06 0.00 59 1026.9
20200123134636 23 171 0.0 0.0 0.00 0.06 0.00 60 1026.8
20200123133125 22 171 0.0 0.0 0.00 0.06 0.00 62 1027.0
20200123131614 22 171 0.0 0.9 0.00 0.06 0.00 62 1027.1
20200123130201 22 171 0.0 0.0 0.00 0.06 0.00 61 1027.0
20200123124609 22 171 0.0 0.9 0.00 0.06 0.00 61 1027.0
20200123123050 22 171 0.0 0.9 0.00 0.06 0.00 61 1026.9
20200123121615 22 171 0.0 0.9 0.00 0.06 0.00 61 1027.0
20200123120043 22 171 0.0 0.9 0.00 0.06 0.00 61 1027.1
20200123114629 22 171 0.0 0.9 0.00 0.06 0.00 62 1027.1
20200123113052 22 171 0.0 0.9 0.00 0.06 0.00 62 1026.9
20200123111552 22 171 0.0 0.0 0.00 0.06 0.00 61 1026.9
20200123110139 22 171 0.0 1.7 0.00 0.06 0.00 61 1026.7
20200123104534 22 171 0.0 1.7 0.00 0.06 0.00 62 1026.7
20200123103039 21 171 0.0 1.7 0.00 0.06 0.00 63 1026.7
20200123101520 21 171 0.0 0.9 0.00 0.06 0.00 62 1026.7
20200123100057 20 171 0.0 0.0 0.00 0.06 0.00 63 1026.8
20200123094545 20 171 0.0 0.0 0.00 0.06 0.00 61 1026.9
20200123093021 20 171 0.0 0.0 0.00 0.06 0.00 61 1026.7
20200123091604 20 171 0.0 0.9 0.00 0.06 0.00 60 1027.1
20200123090031 20 171 0.0 0.0 0.00 0.06 0.00 60 1027.3
20200123084643 19 171 0.0 1.7 0.00 0.06 0.00 61 1027.1
20200123083012 19 171 0.0 0.0 0.00 0.06 0.00 61 1027.3
20200123081520 19 171 0.0 0.9 0.00 0.06 0.00 61 1027.5
20200123080030 19 171 0.0 0.9 0.00 0.06 0.00 61 1027.5
20200123074510 19 171 0.0 0.9 0.00 0.06 0.00 61 1027.6
20200123073008 20 171 0.0 0.0 0.00 0.06 0.00 60 1027.5
20200123071514 20 171 0.0 0.0 0.00 0.06 0.00 58 1027.7
20200123070009 21 171 0.0 0.0 0.00 0.06 0.00 57 1028.0
20200123064505 22 171 0.0 0.9 0.00 0.06 0.00 56 1027.8
20200123063035 22 171 0.0 0.9 0.00 0.06 0.00 56 1028.0
20200123061503 22 171 0.0 0.9 0.00 0.06 0.00 57 1027.9
20200123060008 22 171 0.0 0.0 0.00 0.06 0.00 57 1027.9
20200123054750 22 171 0.0 0.0 0.00 0.06 0.00 58 1028.2
20200123053241 21 171 0.0 0.9 0.00 0.06 0.00 60 1028.1
20200123051635 20 171 0.0 0.0 0.00 0.06 0.00 63 1028.2
20200123050204 19 171 0.0 0.9 0.00 0.06 0.00 63 1028.5
20200123044629 19 171 0.0 0.9 0.00 0.06 0.06 62 1028.5
20200123043227 19 171 0.0 0.9 0.00 0.06 0.06 61 1028.8
20200123041626 19 171 0.0 0.9 0.00 0.06 0.06 61 1028.9
20200123040116 19 171 0.0 0.9 0.00 0.06 0.06 59 1029.0
20200123034641 20 171 0.0 0.9 0.00 0.06 0.06 58 1029.0
20200123033126 21 171 0.0 0.9 0.00 0.06 0.06 57 1028.9